This demonstration page uses our WeatherBlox Daily Observations layout. Learn more.

Left ArrowRight Arrow

Hourly Observations for July 30, 2018

Temp ( °F °C ) Dew Point ( °F °C ) Humidity (%) Winds ( mph kmh ) Pressure ( in mb ) Visibility ( mi km ) Precip ( " mm )
12:53 am 00:53 Clear 67 19.4 63 17.2 87 87 NE 3 6 30.11 1020 10 16 0.00 0.00
1:53 am 01:53 Clear 64 17.8 62 16.7 93 93 E 3 6 30.10 1019 10 16 0.00 0.00
2:53 am 02:53 Mostly Clear 63 17.2 60 15.6 90 90 NE 3 6 30.10 1019 10 16 0.00 0.00
3:53 am 03:53 Clear 62 16.7 60 15.6 93 93 Calm 30.10 1019 10 16 0.00 0.00
4:53 am 04:53 Mostly Cloudy 61 16.1 60 15.6 97 97 Calm 30.10 1019 9 14 0.00 0.00
5:53 am 05:53 Mostly Cloudy 62 16.7 60 15.6 93 93 Calm 30.08 1019 8 13 0.00 0.00
6:45 am 06:45 Cloudy with Nearby Thunderstorms 63 17.2 61 16.1 93 93 NNE 6 9 30.06 1018 8 13 0.00 0.00
6:53 am 06:53 Cloudy with Nearby Thunderstorms 63 17.2 61 16.1 93 93 NE 3 6 30.09 1019 8 13 0.00 0.00
7:00 am 07:00 Cloudy with Light Rain 63 17 61 16 94 94 NE 5 7 30.09 1019 7 11 0.00 0.00
7:38 am 07:38 Cloudy with Nearby Thunderstorms 62 16.7 61 16.1 96 96 WNW 5 7 30.09 1019 4 6 0.07 1.78
8:16 am 08:16 Cloudy with Mist and Fog 63 17 61 16 94 94 WSW 6 9 30.09 1019 6 10 0.00 0.00
8:53 am 08:53 Mostly Cloudy with Light Rain 64 17.8 63 17.2 96 96 WNW 3 6 30.13 1020 8 13 0.00 0.03
9:14 am 09:14 Mostly Sunny 66 19 63 17 88 88 N 3 6 30.09 1019 9 14 0.00 0.00
9:53 am 09:53 Mostly Cloudy 69 20.6 64 17.8 84 84 VRB 3 6 30.12 1020 10 16 0.00 0.03
10:01 am 10:01 Mostly Cloudy 69 20.6 64 17.8 84 84 VRB 5 7 30.09 1019 10 16 0.00 0.00
10:09 am 10:09 Mostly Cloudy 69 20.6 63 17.2 81 81 N 5 7 30.09 1019 10 16 0.00 0.00
10:37 am 10:37 Mostly Cloudy 70 21.1 64 17.8 82 82 N 6 9 30.09 1019 10 16 0.00 0.00
10:53 am 10:53 Mostly Cloudy 72 22.2 63 17.2 73 73 NNE 7 11 30.13 1020 10 16 0.00 0.00
11:31 am 11:31 Cloudy with Light Rain 69 20.6 63 17.2 81 81 ENE 7 11 30.09 1019 10 16 0.00 0.03
11:49 am 11:49 Cloudy with Heavy Rain 66 19 63 17 88 88 NNE 3 6 30.12 1020 2 3 0.11 2.79
11:53 am 11:53 Cloudy with Heavy Rain 65 18.3 62 16.7 90 90 Calm 30.14 1021 1 2 0.14 3.56
12:00 pm 12:00 Cloudy with Light Rain 67 19.4 63 17.2 87 87 Calm 30.09 1019 3 5 0.01 0.25
12:53 pm 12:53 Cloudy with Light Rain 70 21.1 63 17.2 79 79 N 10 17 30.14 1021 10 16 0.01 0.25
1:06 pm 13:06 Cloudy with Light Rain 63 17.2 61 16.1 93 93 N 17 28 30.12 1020 7 11 0.01 0.25
1:53 pm 13:53 Cloudy with Rain 62 16.7 58 14.4 86 86 NNE 9 15 30.16 1021 5 8 0.13 3.30
2:53 pm 14:53 Cloudy 64 17.8 60 15.6 87 87 ENE 5 7 30.14 1021 10 16 0.02 0.51
3:53 pm 15:53 Mostly Sunny 70 21.1 59 15 68 68 ENE 6 9 30.13 1020 10 16 0.00 0.00
4:53 pm 16:53 Mostly Sunny 73 22.8 60 15.6 64 64 N 10 17 30.13 1020 10 16 0.00 0.00
5:53 pm 17:53 Partly Cloudy 71 21.7 60 15.6 68 68 NNE 14 22 30.14 1021 10 16 0.00 0.00
6:53 pm 18:53 Mostly Cloudy 66 18.9 60 15.6 81 81 NNE 13 20 30.14 1021 10 16 0.00 0.00
7:53 pm 19:53 Mostly Sunny 67 19.4 59 15 76 76 NNE 6 9 30.14 1021 10 16 0.00 0.00
8:53 pm 20:53 Clear 64 17.8 60 15.6 87 87 N 6 9 30.15 1021 10 16 0.00 0.00
9:53 pm 21:53 Clear 62 16.7 60 15.6 93 93 NNW 6 9 30.17 1022 10 16 0.00 0.00
10:53 pm 22:53 Clear 61 16.1 59 15 93 93 NNW 5 7 30.18 1022 10 16 0.00 0.00
11:53 pm 23:53 Clear 61 16.1 59 15 93 93 NNW 7 11 30.19 1022 10 16 0.00 0.00

Powered by AerisWeather